Time,TemperatureF,DewpointF,PressureIn,WindDirection,WindDirectionDegrees,WindSpeedMPH,WindSpeedGustMPH,Humidity,HourlyPrecipIn,Conditions,Clouds,dailyrainin,SoftwareType,DateUTC
2013-02-17 00:02:00,3.0,-8.0,30.14,North,-999,-999.0,-999.0,58,-99.99,,,-99.99,,2013-02-17 06:02:00,
2013-02-17 00:11:00,3.0,-8.0,30.14,North,-999,-999.0,-999.0,58,-99.99,,,-99.99,,2013-02-17 06:11:00,
2013-02-17 00:21:00,3.0,-8.0,30.14,North,-999,-999.0,-999.0,58,-99.99,,,-99.99,,2013-02-17 06:21:00,
2013-02-17 00:31:00,3.0,-8.0,30.14,North,-999,-999.0,-999.0,58,-99.99,,,-99.99,,2013-02-17 06:31:00,
2013-02-17 00:41:00,3.0,-8.0,30.14,North,-999,-999.0,-999.0,58,-99.99,,,-99.99,,2013-02-17 06:41:00,
2013-02-17 00:52:00,3.0,-8.0,30.14,North,-999,-999.0,-999.0,58,-99.99,,,-99.99,,2013-02-17 06:52:00,
2013-02-17 01:01:00,3.0,-8.0,30.14,North,-999,-999.0,-999.0,58,-99.99,,,-99.99,,2013-02-17 07:01:00,
2013-02-17 01:11:00,3.0,-8.0,30.14,North,-999,-999.0,-999.0,58,-99.99,,,-99.99,,2013-02-17 07:11:00,
2013-02-17 01:21:00,2.0,-9.0,30.14,North,-999,-999.0,-999.0,58,-99.99,,,-99.99,,2013-02-17 07:21:00,
2013-02-17 01:31:00,2.0,-9.0,30.14,North,-999,-999.0,-999.0,58,-99.99,,,-99.99,,2013-02-17 07:31:00,
2013-02-17 01:41:00,2.0,-9.0,30.14,North,-999,-999.0,-999.0,58,-99.99,,,-99.99,,2013-02-17 07:41:00,
2013-02-17 01:52:00,2.0,-9.0,30.14,North,-999,-999.0,-999.0,58,-99.99,,,-99.99,,2013-02-17 07:52:00,
2013-02-17 02:01:00,2.0,-9.0,30.14,North,-999,-999.0,-999.0,58,-99.99,,,-99.99,,2013-02-17 08:01:00,
2013-02-17 02:11:00,2.0,-9.0,30.14,North,-999,-999.0,-999.0,58,-99.99,,,-99.99,,2013-02-17 08:11:00,
2013-02-17 02:21:00,1.0,-10.0,30.14,North,-999,-999.0,-999.0,58,-99.99,,,-99.99,,2013-02-17 08:21:00,
2013-02-17 02:31:00,1.0,-10.0,30.14,North,-999,-999.0,-999.0,58,-99.99,,,-99.99,,2013-02-17 08:31:00,
2013-02-17 02:42:00,1.0,-10.0,30.14,North,-999,-999.0,-999.0,58,-99.99,,,-99.99,,2013-02-17 08:42:00,
2013-02-17 02:52:00,1.0,-10.0,30.14,North,-999,-999.0,-999.0,58,-99.99,,,-99.99,,2013-02-17 08:52:00,
2013-02-17 03:01:00,1.0,-10.0,30.14,North,-999,-999.0,-999.0,58,-99.99,,,-99.99,,2013-02-17 09:01:00,
2013-02-17 03:11:00,1.0,-10.0,30.14,North,-999,-999.0,-999.0,58,-99.99,,,-99.99,,2013-02-17 09:11:00,
2013-02-17 03:21:00,0.0,-11.0,30.14,North,-999,-999.0,-999.0,58,-99.99,,,-99.99,,2013-02-17 09:21:00,
2013-02-17 03:31:00,0.0,-11.0,30.14,North,-999,-999.0,-999.0,58,-99.99,,,-99.99,,2013-02-17 09:31:00,
2013-02-17 03:41:00,0.0,-11.0,30.14,North,-999,-999.0,-999.0,58,-99.99,,,-99.99,,2013-02-17 09:41:00,
2013-02-17 03:52:00,0.0,-11.0,30.14,North,-999,-999.0,-999.0,58,-99.99,,,-99.99,,2013-02-17 09:52:00,
2013-02-17 04:01:00,0.0,-11.0,30.14,North,-999,-999.0,-999.0,58,-99.99,,,-99.99,,2013-02-17 10:01:00,
2013-02-17 04:11:00,0.0,-11.0,30.14,North,-999,-999.0,-999.0,58,-99.99,,,-99.99,,2013-02-17 10:11:00,
2013-02-17 04:21:00,0.0,-11.0,30.14,North,-999,-999.0,-999.0,58,-99.99,,,-99.99,,2013-02-17 10:21:00,
2013-02-17 04:31:00,0.0,-11.0,30.14,North,-999,-999.0,-999.0,58,-99.99,,,-99.99,,2013-02-17 10:31:00,
2013-02-17 04:41:00,0.0,-11.0,30.14,North,-999,-999.0,-999.0,58,-99.99,,,-99.99,,2013-02-17 10:41:00,
2013-02-17 04:51:00,0.0,-11.0,30.14,North,-999,-999.0,-999.0,58,-99.99,,,-99.99,,2013-02-17 10:51:00,
2013-02-17 05:01:00,0.0,-11.0,30.11,North,-999,-999.0,-999.0,58,-99.99,,,-99.99,,2013-02-17 11:01:00,
2013-02-17 05:11:00,0.0,-11.0,30.11,North,-999,-999.0,-999.0,58,-99.99,,,-99.99,,2013-02-17 11:11:00,
2013-02-17 05:21:00,0.0,-11.0,30.11,North,-999,-999.0,-999.0,58,-99.99,,,-99.99,,2013-02-17 11:21:00,
2013-02-17 05:32:00,0.0,-11.0,30.11,North,-999,-999.0,-999.0,58,-99.99,,,-99.99,,2013-02-17 11:32:00,
2013-02-17 05:42:00,0.0,-11.0,30.11,North,-999,-999.0,-999.0,58,-99.99,,,-99.99,,2013-02-17 11:42:00,
2013-02-17 05:52:00,0.0,-11.0,30.11,North,-999,-999.0,-999.0,58,-99.99,,,-99.99,,2013-02-17 11:52:00,
2013-02-17 06:03:00,0.0,-11.0,30.11,North,-999,-999.0,-999.0,58,-99.99,,,-99.99,,2013-02-17 12:03:00,
2013-02-17 06:11:00,0.0,-11.0,30.11,North,-999,-999.0,-999.0,58,-99.99,,,-99.99,,2013-02-17 12:11:00,
2013-02-17 06:22:00,0.0,-11.0,30.11,North,-999,-999.0,-999.0,58,-99.99,,,-99.99,,2013-02-17 12:22:00,
2013-02-17 06:32:00,1.0,-10.0,30.11,North,-999,-999.0,-999.0,58,-99.99,,,-99.99,,2013-02-17 12:32:00,
2013-02-17 06:42:00,1.0,-10.0,30.11,North,-999,-999.0,-999.0,58,-99.99,,,-99.99,,2013-02-17 12:42:00,
2013-02-17 06:52:00,2.0,-9.0,30.11,North,-999,-999.0,-999.0,58,-99.99,,,-99.99,,2013-02-17 12:52:00,
2013-02-17 07:02:00,3.0,-8.0,30.11,North,-999,-999.0,-999.0,58,-99.99,,,-99.99,,2013-02-17 13:02:00,
2013-02-17 07:12:00,3.0,-8.0,30.11,North,-999,-999.0,-999.0,58,-99.99,,,-99.99,,2013-02-17 13:12:00,
2013-02-17 07:21:00,4.0,-7.0,30.11,North,-999,-999.0,-999.0,58,-99.99,,,-99.99,,2013-02-17 13:21:00,
2013-02-17 07:32:00,6.0,-6.0,30.11,North,-999,-999.0,-999.0,58,-99.99,,,-99.99,,2013-02-17 13:32:00,
2013-02-17 07:41:00,6.0,-6.0,30.11,North,-999,-999.0,-999.0,58,-99.99,,,-99.99,,2013-02-17 13:41:00,
2013-02-17 07:52:00,6.0,-6.0,30.11,North,-999,-999.0,-999.0,58,-99.99,,,-99.99,,2013-02-17 13:52:00,
2013-02-17 08:01:00,7.0,-5.0,30.11,North,-999,-999.0,-999.0,58,-99.99,,,-99.99,,2013-02-17 14:01:00,
2013-02-17 08:11:00,7.0,-5.0,30.11,North,-999,-999.0,-999.0,58,-99.99,,,-99.99,,2013-02-17 14:11:00,
2013-02-17 08:21:00,7.0,-5.0,30.08,North,-999,-999.0,-999.0,58,-99.99,,,-99.99,,2013-02-17 14:21:00,
2013-02-17 08:32:00,7.0,-5.0,30.08,North,-999,-999.0,-999.0,58,-99.99,,,-99.99,,2013-02-17 14:32:00,
2013-02-17 08:42:00,7.0,-5.0,30.08,North,-999,-999.0,-999.0,58,-99.99,,,-99.99,,2013-02-17 14:42:00,
2013-02-17 08:52:00,8.0,-4.0,30.08,North,-999,-999.0,-999.0,58,-99.99,,,-99.99,,2013-02-17 14:52:00,
2013-02-17 09:02:00,10.0,-2.0,30.08,North,-999,-999.0,-999.0,58,-99.99,,,-99.99,,2013-02-17 15:02:00,
2013-02-17 09:11:00,10.0,-2.0,30.08,North,-999,-999.0,-999.0,58,-99.99,,,-99.99,,2013-02-17 15:11:00,
2013-02-17 09:21:00,13.0,1.0,30.08,North,-999,-999.0,-999.0,58,-99.99,,,-99.99,,2013-02-17 15:21:00,
2013-02-17 09:32:00,17.0,6.0,30.08,North,-999,-999.0,-999.0,60,-99.99,,,-99.99,,2013-02-17 15:32:00,
2013-02-17 09:52:00,18.0,6.0,30.08,North,-999,-999.0,-999.0,59,-99.99,,,-99.99,,2013-02-17 15:52:00,
2013-02-17 10:01:00,19.0,7.0,30.08,North,-999,-999.0,-999.0,58,-99.99,,,-99.99,,2013-02-17 16:01:00,
2013-02-17 10:21:00,20.0,7.0,30.08,North,-999,-999.0,-999.0,56,-99.99,,,-99.99,,2013-02-17 16:21:00,
2013-02-17 10:32:00,21.0,8.0,30.08,North,-999,-999.0,-999.0,56,-99.99,,,-99.99,,2013-02-17 16:32:00,
2013-02-17 10:42:00,21.0,8.0,30.08,North,-999,-999.0,-999.0,56,-99.99,,,-99.99,,2013-02-17 16:42:00,
2013-02-17 10:52:00,21.0,7.0,30.08,North,-999,-999.0,-999.0,55,-99.99,,,-99.99,,2013-02-17 16:52:00,
2013-02-17 11:02:00,22.0,8.0,30.08,North,-999,-999.0,-999.0,55,-99.99,,,-99.99,,2013-02-17 17:02:00,
2013-02-17 11:11:00,22.0,8.0,30.08,North,-999,-999.0,-999.0,55,-99.99,,,-99.99,,2013-02-17 17:11:00,
2013-02-17 11:21:00,23.0,10.0,30.05,North,-999,-999.0,-999.0,56,-99.99,,,-99.99,,2013-02-17 17:21:00,
2013-02-17 11:32:00,24.0,10.0,30.05,North,-999,-999.0,-999.0,55,-99.99,,,-99.99,,2013-02-17 17:32:00,
2013-02-17 11:41:00,24.0,10.0,30.05,North,-999,-999.0,-999.0,55,-99.99,,,-99.99,,2013-02-17 17:41:00,
2013-02-17 11:52:00,25.0,11.0,30.05,North,-999,-999.0,-999.0,55,-99.99,,,-99.99,,2013-02-17 17:52:00,
2013-02-17 12:02:00,26.0,12.0,30.05,North,-999,-999.0,-999.0,54,-99.99,,,-99.99,,2013-02-17 18:02:00,
2013-02-17 12:11:00,26.0,12.0,30.05,North,-999,-999.0,-999.0,54,-99.99,,,-99.99,,2013-02-17 18:11:00,
2013-02-17 12:22:00,27.0,13.0,30.02,North,-999,-999.0,-999.0,54,-99.99,,,-99.99,,2013-02-17 18:22:00,
2013-02-17 12:33:00,28.0,14.0,30.02,North,-999,-999.0,-999.0,54,-99.99,,,-99.99,,2013-02-17 18:33:00,
2013-02-17 12:42:00,28.0,14.0,30.02,North,-999,-999.0,-999.0,54,-99.99,,,-99.99,,2013-02-17 18:42:00,
2013-02-17 12:52:00,29.0,14.0,29.99,North,-999,-999.0,-999.0,54,-99.99,,,-99.99,,2013-02-17 18:52:00,
2013-02-17 13:01:00,30.0,15.0,29.99,North,-999,-999.0,-999.0,53,-99.99,,,-99.99,,2013-02-17 19:01:00,
2013-02-17 13:11:00,30.0,15.0,29.99,North,-999,-999.0,-999.0,53,-99.99,,,-99.99,,2013-02-17 19:11:00,
2013-02-17 13:21:00,31.0,15.0,29.99,North,-999,-999.0,-999.0,52,-99.99,,,-99.99,,2013-02-17 19:21:00,
2013-02-17 13:32:00,31.0,16.0,29.99,North,-999,-999.0,-999.0,53,-99.99,,,-99.99,,2013-02-17 19:32:00,
2013-02-17 13:42:00,31.0,16.0,29.99,North,-999,-999.0,-999.0,53,-99.99,,,-99.99,,2013-02-17 19:42:00,
2013-02-17 13:52:00,33.0,18.0,29.96,North,-999,-999.0,-999.0,53,-99.99,,,-99.99,,2013-02-17 19:52:00,
2013-02-17 14:02:00,33.0,18.0,29.96,North,-999,-999.0,-999.0,53,-99.99,,,-99.99,,2013-02-17 20:02:00,
2013-02-17 14:11:00,33.0,18.0,29.96,North,-999,-999.0,-999.0,53,-99.99,,,-99.99,,2013-02-17 20:11:00,
2013-02-17 14:21:00,33.0,17.0,29.96,North,-999,-999.0,-999.0,52,-99.99,,,-99.99,,2013-02-17 20:21:00,
2013-02-17 14:32:00,33.0,18.0,29.93,North,-999,-999.0,-999.0,53,-99.99,,,-99.99,,2013-02-17 20:32:00,
2013-02-17 14:42:00,33.0,18.0,29.93,North,-999,-999.0,-999.0,53,-99.99,,,-99.99,,2013-02-17 20:42:00,
2013-02-17 14:52:00,34.0,18.0,29.93,North,-999,-999.0,-999.0,52,-99.99,,,-99.99,,2013-02-17 20:52:00,
2013-02-17 15:01:00,34.0,18.0,29.93,North,-999,-999.0,-999.0,52,-99.99,,,-99.99,,2013-02-17 21:01:00,
2013-02-17 15:11:00,34.0,18.0,29.93,North,-999,-999.0,-999.0,52,-99.99,,,-99.99,,2013-02-17 21:11:00,
2013-02-17 15:21:00,34.0,19.0,29.93,North,-999,-999.0,-999.0,54,-99.99,,,-99.99,,2013-02-17 21:21:00,
2013-02-17 15:32:00,33.0,19.0,29.93,North,-999,-999.0,-999.0,55,-99.99,,,-99.99,,2013-02-17 21:32:00,
2013-02-17 15:41:00,33.0,19.0,29.93,North,-999,-999.0,-999.0,55,-99.99,,,-99.99,,2013-02-17 21:41:00,
2013-02-17 15:53:00,32.0,18.0,29.90,North,-999,-999.0,-999.0,56,-99.99,,,-99.99,,2013-02-17 21:53:00,
2013-02-17 16:01:00,32.0,19.0,29.90,North,-999,-999.0,-999.0,57,-99.99,,,-99.99,,2013-02-17 22:01:00,
2013-02-17 16:12:00,32.0,19.0,29.90,North,-999,-999.0,-999.0,57,-99.99,,,-99.99,,2013-02-17 22:12:00,
2013-02-17 16:21:00,31.0,18.0,29.90,North,-999,-999.0,-999.0,58,-99.99,,,-99.99,,2013-02-17 22:21:00,
2013-02-17 16:32:00,31.0,18.0,29.87,North,-999,-999.0,-999.0,58,-99.99,,,-99.99,,2013-02-17 22:32:00,
2013-02-17 16:42:00,31.0,18.0,29.87,North,-999,-999.0,-999.0,58,-99.99,,,-99.99,,2013-02-17 22:42:00,
2013-02-17 16:52:00,31.0,18.0,29.87,North,-999,-999.0,-999.0,59,-99.99,,,-99.99,,2013-02-17 22:52:00,
2013-02-17 17:02:00,30.0,17.0,29.87,North,-999,-999.0,-999.0,59,-99.99,,,-99.99,,2013-02-17 23:02:00,
2013-02-17 17:11:00,30.0,17.0,29.87,North,-999,-999.0,-999.0,59,-99.99,,,-99.99,,2013-02-17 23:11:00,
2013-02-17 17:21:00,29.0,17.0,29.87,North,-999,-999.0,-999.0,60,-99.99,,,-99.99,,2013-02-17 23:21:00,
2013-02-17 17:32:00,28.0,16.0,29.87,North,-999,-999.0,-999.0,61,-99.99,,,-99.99,,2013-02-17 23:32:00,
2013-02-17 17:42:00,28.0,16.0,29.87,North,-999,-999.0,-999.0,61,-99.99,,,-99.99,,2013-02-17 23:42:00,
2013-02-17 17:52:00,27.0,16.0,29.87,North,-999,-999.0,-999.0,62,-99.99,,,-99.99,,2013-02-17 23:52:00,
2013-02-17 18:01:00,26.0,15.0,29.84,North,-999,-999.0,-999.0,63,-99.99,,,-99.99,,2013-02-18 00:01:00,
2013-02-17 18:11:00,26.0,15.0,29.84,North,-999,-999.0,-999.0,63,-99.99,,,-99.99,,2013-02-18 00:11:00,
2013-02-17 18:22:00,26.0,16.0,29.84,North,-999,-999.0,-999.0,64,-99.99,,,-99.99,,2013-02-18 00:22:00,
2013-02-17 18:31:00,25.0,15.0,29.84,North,-999,-999.0,-999.0,65,-99.99,,,-99.99,,2013-02-18 00:31:00,
2013-02-17 18:41:00,25.0,15.0,29.84,North,-999,-999.0,-999.0,65,-99.99,,,-99.99,,2013-02-18 00:41:00,
2013-02-17 18:52:00,25.0,15.0,29.84,North,-999,-999.0,-999.0,65,-99.99,,,-99.99,,2013-02-18 00:52:00,
2013-02-17 19:01:00,25.0,15.0,29.84,North,-999,-999.0,-999.0,66,-99.99,,,-99.99,,2013-02-18 01:01:00,
2013-02-17 19:11:00,25.0,15.0,29.84,North,-999,-999.0,-999.0,66,-99.99,,,-99.99,,2013-02-18 01:11:00,
2013-02-17 19:21:00,26.0,16.0,29.84,North,-999,-999.0,-999.0,65,-99.99,,,-99.99,,2013-02-18 01:21:00,
2013-02-17 19:31:00,26.0,16.0,29.84,North,-999,-999.0,-999.0,65,-99.99,,,-99.99,,2013-02-18 01:31:00,
2013-02-17 19:41:00,26.0,16.0,29.84,North,-999,-999.0,-999.0,65,-99.99,,,-99.99,,2013-02-18 01:41:00,
2013-02-17 19:52:00,25.0,16.0,29.84,North,-999,-999.0,-999.0,67,-99.99,,,-99.99,,2013-02-18 01:52:00,
2013-02-17 20:01:00,25.0,16.0,29.81,North,-999,-999.0,-999.0,67,-99.99,,,-99.99,,2013-02-18 02:01:00,
2013-02-17 20:11:00,25.0,16.0,29.81,North,-999,-999.0,-999.0,67,-99.99,,,-99.99,,2013-02-18 02:11:00,
2013-02-17 20:21:00,25.0,16.0,29.81,North,-999,-999.0,-999.0,68,-99.99,,,-99.99,,2013-02-18 02:21:00,
2013-02-17 20:32:00,25.0,16.0,29.81,North,-999,-999.0,-999.0,68,-99.99,,,-99.99,,2013-02-18 02:32:00,
2013-02-17 20:41:00,25.0,16.0,29.81,North,-999,-999.0,-999.0,68,-99.99,,,-99.99,,2013-02-18 02:41:00,
2013-02-17 20:52:00,25.0,16.0,29.81,North,-999,-999.0,-999.0,68,-99.99,,,-99.99,,2013-02-18 02:52:00,
2013-02-17 21:01:00,26.0,17.0,29.81,North,-999,-999.0,-999.0,68,-99.99,,,-99.99,,2013-02-18 03:01:00,
2013-02-17 21:11:00,26.0,17.0,29.81,North,-999,-999.0,-999.0,68,-99.99,,,-99.99,,2013-02-18 03:11:00,
2013-02-17 21:21:00,26.0,17.0,29.78,North,-999,-999.0,-999.0,69,-99.99,,,-99.99,,2013-02-18 03:21:00,
2013-02-17 21:31:00,26.0,17.0,29.78,North,-999,-999.0,-999.0,69,-99.99,,,-99.99,,2013-02-18 03:31:00,
2013-02-17 21:42:00,26.0,17.0,29.78,North,-999,-999.0,-999.0,69,-99.99,,,-99.99,,2013-02-18 03:42:00,
2013-02-17 21:52:00,26.0,17.0,29.78,North,-999,-999.0,-999.0,69,-99.99,,,-99.99,,2013-02-18 03:52:00,
2013-02-17 22:01:00,26.0,18.0,29.78,North,-999,-999.0,-999.0,70,-99.99,,,-99.99,,2013-02-18 04:01:00,
2013-02-17 22:11:00,26.0,18.0,29.78,North,-999,-999.0,-999.0,70,-99.99,,,-99.99,,2013-02-18 04:11:00,
2013-02-17 22:21:00,26.0,18.0,29.78,North,-999,-999.0,-999.0,71,-99.99,,,-99.99,,2013-02-18 04:21:00,
2013-02-17 22:32:00,27.0,18.0,29.75,North,-999,-999.0,-999.0,69,-99.99,,,-99.99,,2013-02-18 04:32:00,
2013-02-17 22:41:00,27.0,18.0,29.75,North,-999,-999.0,-999.0,69,-99.99,,,-99.99,,2013-02-18 04:41:00,
2013-02-17 22:52:00,27.0,18.0,29.75,North,-999,-999.0,-999.0,69,-99.99,,,-99.99,,2013-02-18 04:52:00,
2013-02-17 23:02:00,28.0,19.0,29.75,North,-999,-999.0,-999.0,69,-99.99,,,-99.99,,2013-02-18 05:02:00,
2013-02-17 23:11:00,28.0,19.0,29.75,North,-999,-999.0,-999.0,69,-99.99,,,-99.99,,2013-02-18 05:11:00,
2013-02-17 23:21:00,28.0,19.0,29.72,North,-999,-999.0,-999.0,69,-99.99,,,-99.99,,2013-02-18 05:21:00,
2013-02-17 23:31:00,28.0,19.0,29.72,North,-999,-999.0,-999.0,68,-99.99,,,-99.99,,2013-02-18 05:31:00,
2013-02-17 23:41:00,28.0,19.0,29.72,North,-999,-999.0,-999.0,68,-99.99,,,-99.99,,2013-02-18 05:41:00,
2013-02-17 23:52:00,28.0,19.0,29.72,North,-999,-999.0,-999.0,69,-99.99,,,-99.99,,2013-02-18 05:52:00,